Gillette, WY

2:51 AM MDT on September 25, 2017 (GMT -0600)
Gillette-Campbell County

Weather History for KGCC - October, 2012

Change the Weather History Date:

Tuesday, October 16, 2012

  Actual Average Record
Temperature  
Mean Temperature 54 °F 45 °F  
Max Temperature 67 °F 59 °F 84 °F (1991)
Min Temperature 41 °F 32 °F 13 °F (1969)
Degree Days  
Heating Degree Days 11 20  
Month to date heating degree days 291 275  
Since 1 July heating degree days 449 570  
Cooling Degree Days 0 0  
Month to date cooling degree days 0 0  
Year to date cooling degree days 795 500  
Growing Degree Days 4 (Base 50)    
Moisture  
Dew Point 38 °F    
Average Humidity 59    
Maximum Humidity 86    
Minimum Humidity 31    
Precipitation  
Precipitation 0.24 in 0.06 in 1.14 in (1998)
Month to date precipitation 0.51 0.78  
Year to date precipitation 8.09 12.45  
Sea Level Pressure  
Sea Level Pressure 29.55 in    
Wind  
Wind Speed 13 mph (WSW)    
Max Wind Speed 37 mph    
Max Gust Speed 47 mph    
Visibility 10 miles    
Events Rain    
T = Trace of Precipitation, MM = Missing Value Source: NWS Daily Summary

Daily Weather History Graph

Daily Weather History Graph

Search for Another Location

Airport or City:

Trip Planner

Search our weather history database for the weather conditions in past years. The results will help you decide how hot, cold, wet, or windy it might be!

Date:

Astronomy

Oct. 16, 2012 Rise Set
Actual Time 7:19 AM MDT 6:15 PM MDT
Civil Twilight 6:49 AM MDT 6:44 PM MDT
Nautical Twilight 6:16 AM MDT 7:18 PM MDT
Astronomical Twilight 5:42 AM MDT 7:51 PM MDT
Moon 8:50 AM MDT (10/16) 6:56 PM MDT (10/16)
Length of Visible Light 11h 54m
Length of Day
10h 56m
New Moon, 2% of the Moon is Illuminated
Oct 16
New Moon
Oct 21
First Quarter
Oct 29
Full
Nov 6
Last Quarter
Nov 13
New

Hourly Weather History & Observations

Time (MDT) Temp. Windchill Dew Point Humidity Pressure Visibility Wind Dir Wind Speed Gust Speed Precip Events Conditions
12:53 AM 42.1 °F 38.4 °F 37.0 °F 82% 29.79 in 10.0 mi SW 5.8 mph - N/A   Partly Cloudy
1:53 AM 45.0 °F 41.2 °F 39.0 °F 80% 29.76 in 10.0 mi SSW 6.9 mph - N/A   Clear
2:53 AM 45.0 °F 40.6 °F 37.9 °F 76% 29.73 in 10.0 mi South 8.1 mph - N/A   Clear
3:53 AM 45.0 °F 39.7 °F 39.0 °F 80% 29.71 in 10.0 mi South 10.4 mph - N/A   Clear
4:53 AM 42.1 °F 39.2 °F 37.0 °F 82% 29.69 in 10.0 mi SSE 4.6 mph - N/A   Clear
5:53 AM 42.8 °F 37.5 °F 37.4 °F 81% 29.73 in 10.0 mi South 9.2 mph - N/A   Clear
6:53 AM 43.0 °F 38.8 °F 37.0 °F 80% 29.64 in 10.0 mi SSE 6.9 mph - N/A   Clear
7:53 AM 48.0 °F - 35.1 °F 61% 29.60 in 10.0 mi SSW 18.4 mph 21.9 mph N/A   Clear
8:03 AM 48.2 °F - 35.6 °F 62% 29.64 in 10.0 mi SSW 18.4 mph - N/A   Clear
8:53 AM 52.0 °F - 35.1 °F 53% 29.55 in 10.0 mi SW 12.7 mph - N/A   Clear
9:53 AM 57.9 °F - 33.1 °F 39% 29.51 in 10.0 mi SW 21.9 mph 28.8 mph N/A   Clear
10:53 AM 59.0 °F - 33.1 °F 38% 29.47 in 10.0 mi SW 16.1 mph 25.3 mph N/A   Clear
11:53 AM 63.0 °F - 34.0 °F 34% 29.44 in 10.0 mi SW 17.3 mph 29.9 mph N/A   Overcast
12:53 PM 64.0 °F - 34.0 °F 33% 29.41 in 10.0 mi WSW 17.3 mph 24.2 mph N/A   Overcast
1:53 PM 63.0 °F - 35.1 °F 35% 29.39 in 10.0 mi West 18.4 mph 23.0 mph N/A   Overcast
2:53 PM 64.9 °F - 42.1 °F 43% 29.31 in 10.0 mi Variable 4.6 mph - 0.00 in   Clear
3:53 PM 66.0 °F - 39.0 °F 37% 29.33 in 10.0 mi NNE 4.6 mph - N/A   Mostly Cloudy
4:07 PM 51.8 °F - 46.4 °F 82% 29.44 in 6.0 mi NNW 33.4 mph 47.2 mph 0.00 in Rain Light Rain
4:19 PM 50.0 °F - 46.4 °F 87% 29.47 in 5.0 mi NNW 25.3 mph 42.6 mph 0.03 in Rain Light Rain
4:53 PM 48.9 °F - 46.0 °F 90% 29.44 in 7.0 mi North 17.3 mph - 0.06 in Rain Light Rain
5:53 PM 48.0 °F - 45.0 °F 89% 29.50 in 7.0 mi NNW 17.3 mph 26.5 mph 0.07 in Rain Light Rain
6:53 PM 48.0 °F - 44.1 °F 86% 29.48 in 10.0 mi WSW 5.8 mph - 0.11 in   Overcast
7:53 PM 48.0 °F - 43.0 °F 83% 29.49 in 10.0 mi WNW 10.4 mph - N/A   Overcast
8:15 PM 46.4 °F 38.5 °F 41.0 °F 81% 29.55 in 10.0 mi NNW 21.9 mph 33.4 mph N/A   Overcast
8:53 PM 46.9 °F - 39.0 °F 74% 29.52 in 10.0 mi NW 12.7 mph - N/A   Mostly Cloudy
9:53 PM 44.1 °F 37.1 °F 32.0 °F 63% 29.55 in 10.0 mi NW 15.0 mph - N/A   Overcast
10:53 PM 42.1 °F 33.9 °F 27.0 °F 55% 29.58 in 10.0 mi WNW 17.3 mph - N/A   Partly Cloudy
11:53 PM 41.0 °F 32.2 °F 25.0 °F 53% 29.60 in 10.0 mi WNW 18.4 mph - N/A   Clear